shoulder
new_line
new_line
first
second
third
Al di la della Luna; Beyond the Moon; Astrophotography; Astrofotografia; Danilo Pivato
 
 
         
         
2007

Orbital Elements

Epoch 2007 Jan. 20.0 TT = JDT 2454120.5
T 2007 Jan. 12.79875 TT                                                                               MPC
q   0.1707327                 (2000.0)                             P                                 Q
z  -0.0001070           Peri.   155.97560         +0.12688552                   -0.17387931
 +/-0.0000025         Node   267.41491          +0.67529017                  +0.73627680
e   1.0000183            Incl.   77.83725          +0.72655575                   -0.6539590
                        
 
         
         
2007.01.10 - 16h 23m UT
2007.01.10 - 16h 34m UT
2007.01.10 - 16h 39m UT
2007.01.10 - 16h 42m UT
2007.01.10 - 16h 44m UT
         
2007.01.10 - 16h 48m UT
 
         
       
       
         
         
         

 

       
 
Since: 01/01/2004
 
       
 
Since: 01/11/2010